W1EZY Weather Reports


Display with metric or nautical units.
time (UTC)temp
F
wind
direction
speed
MPH
gust
MPH
rain 1hr
in
rain 24hr
in
rain mn
in
humidity
%
barometer
mb
20210924234015 70 127 0.0 0.0 0.00 0.00 0.00 83 1016.0
20210924232514 70 199 0.0 0.0 0.00 0.00 0.00 85 1016.1
20210924231019 70 163 0.0 0.0 0.00 0.00 0.00 86 1015.9
20210924225518 70 164 0.0 0.0 0.00 0.00 0.00 86 1015.9
20210924224024 71 196 0.0 0.0 0.00 0.00 0.00 87 1015.8
20210924222524 71 177 0.0 0.0 0.00 0.00 0.00 88 1015.9
20210924221028 72 203 0.0 4.0 0.00 0.00 0.00 88 1015.7
20210924215528 72 210 0.0 1.0 0.00 0.00 0.00 88 1015.7
20210924214013 72 127 0.0 0.0 0.00 0.00 0.00 87 1015.5
20210924212512 73 191 0.0 0.0 0.00 0.00 0.00 87 1015.4
20210924211017 74 178 0.0 8.0 0.00 0.00 0.00 86 1015.3
20210924205516 74 122 0.0 3.0 0.00 0.00 0.00 85 1015.2
20210924204022 75 138 0.0 4.0 0.00 0.00 0.00 84 1015.1
20210924202522 76 169 0.0 2.0 0.00 0.00 0.00 83 1015.2
20210924201022 75 199 0.0 10.0 0.00 0.00 0.00 84 1015.2
20210924195525 75 186 0.0 5.0 0.00 0.00 0.00 85 1015.1
20210924194026 75 129 0.0 5.0 0.00 0.00 0.00 84 1015.1
20210924192530 75 150 0.0 11.0 0.00 0.00 0.00 86 1015.1
20210924191031 76 172 1.0 10.0 0.00 0.00 0.00 86 1015.3
20210924185513 76 159 1.0 10.0 0.00 0.00 0.00 87 1015.1
20210924184013 75 205 0.0 6.0 0.00 0.00 0.00 89 1015.2
20210924182517 75 214 2.0 11.0 0.00 0.00 0.00 90 1015.3
20210924181017 74 164 1.0 11.0 0.00 0.00 0.00 90 1015.3
20210924175522 75 219 1.0 16.0 0.00 0.00 0.00 89 1015.3
20210924174022 75 143 0.0 8.0 0.00 0.00 0.00 89 1015.1
20210924172525 75 154 1.0 10.0 0.00 0.00 0.00 88 1015.4
20210924171024 75 184 0.0 10.0 0.00 0.00 0.00 88 1016.2
20210924165527 75 142 0.0 11.0 0.00 0.00 0.00 88 1016.4
20210924164028 75 121 0.0 8.0 0.00 0.00 0.00 88 1016.8
20210924162513 75 151 1.0 13.0 0.00 0.00 0.00 88 1016.8
20210924161013 75 153 1.0 16.0 0.00 0.00 0.00 88 1016.7
20210924155514 75 140 1.0 10.0 0.00 0.00 0.00 87 1016.7
20210924154020 75 131 3.0 18.0 0.00 0.00 0.00 87 1016.6
20210924152520 75 159 3.0 15.0 0.00 0.00 0.00 87 1016.3
20210924151024 75 211 2.0 17.0 0.00 0.00 0.00 87 1016.4
20210924145524 75 165 1.0 9.0 0.00 0.00 0.00 88 1016.3
20210924144028 74 200 1.0 15.0 0.00 0.00 0.00 88 1016.3
20210924142528 75 123 0.0 14.0 0.00 0.00 0.00 88 1016.5
20210924141014 75 126 2.0 11.0 0.00 0.00 0.00 88 1016.4
20210924135514 75 132 1.0 13.0 0.00 0.00 0.00 88 1016.5
20210924134019 75 202 2.0 14.0 0.00 0.00 0.00 88 1016.4
20210924132519 75 125 3.0 17.0 0.00 0.00 0.00 88 1016.2
20210924131024 75 202 1.0 12.0 0.00 0.00 0.00 88 1016.2
20210924125524 75 119 2.0 13.0 0.00 0.00 0.00 89 1016.0
20210924124028 74 161 0.0 9.0 0.00 0.00 0.00 90 1016.0
20210924122528 74 165 1.0 12.0 0.00 0.00 0.00 89 1015.9
20210924121012 74 178 0.0 14.0 0.00 0.00 0.00 89 1015.9
20210924115513 74 149 2.0 16.0 0.00 0.00 0.00 90 1015.9
20210924114014 74 134 1.0 20.0 0.00 0.00 0.00 90 1015.7
20210924112518 74 143 2.0 10.0 0.00 0.00 0.00 90 1015.8
20210924111018 74 142 2.0 12.0 0.00 0.00 0.00 91 1016.2
20210924105521 73 185 1.0 15.0 0.00 0.00 0.00 91 1016.2
20210924104022 73 154 1.0 9.0 0.00 0.00 0.00 91 1016.2
20210924102526 73 116 0.0 11.0 0.00 0.00 0.00 91 1016.2
20210924101028 73 144 0.0 11.0 0.00 0.00 0.00 91 1016.3
20210924095531 73 172 1.0 10.0 0.00 0.00 0.00 91 1016.2
20210924094012 73 135 0.0 12.0 0.00 0.00 0.00 91 1016.3
20210924084021 73 143 0.0 14.0 0.00 0.00 0.00 91 1016.1
20210924082525 73 114 2.0 13.0 0.00 0.00 0.00 91 1016.0
20210924081027 73 132 0.0 10.0 0.00 0.00 0.00 91 1016.1
20210924075527 73 136 1.0 10.0 0.00 0.00 0.00 91 1016.1
20210924074012 73 136 0.0 10.0 0.00 0.00 0.00 91 1016.1
20210924072513 73 182 1.0 9.0 0.00 0.00 0.00 91 1016.3
20210924071018 73 186 1.0 12.0 0.00 0.00 0.00 91 1016.5
20210924065516 73 198 0.0 5.0 0.00 0.00 0.00 91 1016.5
20210924064020 73 143 1.0 12.0 0.00 0.00 0.00 90 1016.6
20210924062520 73 134 0.0 9.0 0.00 0.00 0.00 90 1016.6
20210924061025 73 115 1.0 6.0 0.00 0.00 0.00 90 1016.5
20210924055524 73 159 2.0 9.0 0.00 0.00 0.00 90 1016.6
20210924054028 73 119 0.0 5.0 0.00 0.00 0.00 90 1016.7
20210924052528 73 166 0.0 8.0 0.00 0.00 0.00 90 1016.7
20210924051014 73 172 1.0 7.0 0.00 0.00 0.00 90 1016.8
20210924045514 73 167 0.0 4.0 0.00 0.00 0.00 90 1016.9
20210924044020 73 179 0.0 3.0 0.00 0.00 0.00 90 1017.0
20210924042519 73 135 0.0 0.0 0.00 0.00 0.00 90 1017.2
20210924041024 72 122 0.0 1.0 0.00 0.00 0.00 89 1017.3
20210924035522 72 148 0.0 3.0 0.00 0.00 0.00 89 1017.3
20210924034023 72 121 0.0 4.0 0.00 0.00 0.00 89 1017.4
20210924032525 73 150 0.0 5.0 0.00 0.00 0.00 88 1017.3
20210924031027 73 140 0.0 8.0 0.00 0.00 0.00 88 1017.4
20210924025530 73 180 0.0 8.0 0.00 0.00 0.00 88 1017.5
20210924024032 72 197 3.0 10.0 0.00 0.00 0.00 88 1017.6
20210924022514 73 140 0.0 7.0 0.00 0.00 0.00 88 1017.6
20210924021017 72 127 0.0 4.0 0.00 0.00 0.00 88 1017.7
20210924015520 73 156 0.0 8.0 0.00 0.00 0.00 88 1017.7
20210924014021 73 155 1.0 12.0 0.00 0.00 0.00 88 1017.7
20210924012524 73 114 0.0 3.0 0.00 0.00 0.00 88 1017.6
20210924011023 73 128 0.0 11.0 0.00 0.00 0.00 88 1017.6
20210924005526 73 130 0.0 3.0 0.00 0.00 0.00 88 1017.7
20210924004027 73 119 0.0 4.0 0.00 0.00 0.00 88 1017.6
20210924002527 73 173 0.0 6.0 0.00 0.00 0.00 88 1017.8
20210924001023 74 109 0.0 6.0 0.00 0.00 0.00 87 1017.7
20210923235518 74 165 0.0 2.0 0.00 0.00 0.00 87 1017.7